This is the latest recevied weather packets stored in our database for station/object KB4NWJ. If no packets are shown the sender has not sent any weather packets the latest 10 day(s).
| Time | Temp. | Humidity | Pressure | Rain* | Wind** | Luminosity | Snow |
|---|---|---|---|---|---|---|---|
| 1777844692 | 21.11° C | 42% | 1018.6 hPa | 0 mm | - | 330 W/m² | - |
| 1777844389 | 22.22° C | 41% | 1018.6 hPa | 0 mm | - | 342 W/m² | - |
| 1777844087 | 21.67° C | 40% | 1018.6 hPa | 0 mm | - | 362 W/m² | - |
| 1777843783 | 21.11° C | 42% | 1018.6 hPa | 0 mm | - | 296 W/m² | - |
| 1777843481 | 21.11° C | 40% | 1018.6 hPa | 0 mm | - | 310 W/m² | - |
| 1777843178 | 20.56° C | 38% | 1018.5 hPa | 0 mm | - | 404 W/m² | - |
| 1777842875 | 21.11° C | 40% | 1018.7 hPa | 0 mm | - | 408 W/m² | - |
| 1777842570 | 21.11° C | 36% | 1018.6 hPa | 0 mm | - | 440 W/m² | - |
| 1777842267 | 20.56° C | 39% | 1018.9 hPa | 0 mm | - | 437 W/m² | - |
| 1777841962 | 22.22° C | 37% | 1019 hPa | 0 mm | - | 478 W/m² | - |
| 1777841660 | 21.67° C | 37% | 1018.7 hPa | 0 mm | - | 468 W/m² | - |
| 1777841356 | 21.67° C | 39% | 1018.9 hPa | 0 mm | - | 445 W/m² | - |
| 1777841053 | 21.67° C | 40% | 1018.8 hPa | 0 mm | - | 494 W/m² | - |
| 1777840750 | 20° C | 40% | 1018.9 hPa | 0 mm | - | 478 W/m² | - |
| 1777840448 | 21.11° C | 39% | 1019.1 hPa | 0 mm | - | 522 W/m² | - |
| 1777840144 | 21.11° C | 41% | 1019 hPa | 0 mm | - | 489 W/m² | - |
| 1777839843 | 21.11° C | 34% | 1019.4 hPa | 0 mm | - | 536 W/m² | - |
| 1777839541 | 20° C | 39% | 1019.3 hPa | 0 mm | - | 554 W/m² | - |
| 1777839237 | 20.56° C | 38% | 1019.5 hPa | 0 mm | - | 556 W/m² | - |
| 1777838935 | 21.11° C | 39% | 1019.5 hPa | 0 mm | - | 557 W/m² | - |
| 1777838630 | 20° C | 42% | 1019.4 hPa | 0 mm | - | 577 W/m² | - |
| 1777838328 | 21.11° C | 41% | 1019.4 hPa | 0 mm | - | 549 W/m² | - |
| 1777838024 | 20.56° C | 45% | 1019.5 hPa | 0 mm | - | 580 W/m² | - |
| 1777837722 | 21.67° C | 40% | 1019.7 hPa | 0 mm | - | 608 W/m² | - |
| 1777837417 | 21.67° C | 46% | 1019.8 hPa | 0 mm | - | 617 W/m² | - |
* Rain latest hour (hover to see other rain measurements)
** Current wind speed in m/s (hover to see current wind gust speed)